Dewpoint
73 72 71 71 71 70 70 69 68 67 68 65 66 67 67 69 70 70 66 68 68 68 70 73 75 75 68 72 77 75 75 76 73 71 72 71 70 68 66 65 65 65
73 74 74 71 73 74 73 71 69 69 69 71 67 69 69 70 67 69 71 67 69 67 70 71 72 73 72 70 75 73 75 75 74 68 72 71 71 68 67 66 66 67
72 73 72 70 69 69 68 69 70 69 67 66 66 73 68 69 67 70 70 69 67 63 69 70 71 72 69 72 75 73 70 75 73 70 72 72 71 73 71 68 67 66
73 72 71 70 68 67 67 68 69 70 69 68 66 65 67 65 67 67 71 72 69 69 68 67 68 67 69 70 74 72 71 75 72 74 73 73 72 69 70 70 68 66
72 72 71 71 70 70 68 67 67 66 67 68 66 68 69 72 70 66 68 69 72 68 67 71 70 68 71 72 73 72 71 71 73 75 75 74 73 71 69 70 70 67
73 73 73 71 70 70 69 68 67 66 66 66 66 66 67 69 67 66 66 66 65 65 62 62 64 65 67 70 71 70 68 67 70 74 73 73 71 69 69 69 70 69
73 73 71 71 69 69 69 68 67 67 66 67 69 67 68 66 67 70 71 68 66 66 63 66 71 68 67 69 71 70 69 70 71 74 73 72 73 71 69 67 71 70
72 72 72 71 69 68 69 69 68 67 66 72 70 72 70 67 69 66 66 67 66 66 67 64 68 71 66 66 67 70 69 64 65 71 74 72 72 72 72 71 70 73
71 72 71 70 68 68 67 69 70 70 72 69 70 69 69 69 68 67 71 70 69 68 70 67 70 66 66 66 68 70 70 68 69 69 70 69 69 71 71 72 71 71
70 70 70 69 68 67 71 72 71 70 73 76 73 71 69 70 68 69 70 73 70 69 68 71 71 69 67 67 69 68 70 72 72 73 70 68 68 67 68 71 72 72
66 66 68 69 69 70 73 74 72 72 73 72 75 74 72 73 74 73 72 71 68 68 69 71 69 69 70 67 67 69 71 70 73 73 71 71 70 71 72 71 71 71
67 69 71 72 75 75 73 74 76 74 72 74 74 74 73 76 74 75 73 72 70 68 68 69 70 70 70 71 68 68 74 74 73 71 71 73 72 70 69 70 70 71
71 73 72 73 74 74 76 75 73 74 73 74 75 75 75 76 73 74 75 73 72 72 69 69 69 68 72 73 73 74 73 71 70 70 72 71 71 71 70 69 70 69
73 73 73 73 74 74 74 73 72 72 72 74 75 74 73 73 72 72 73 72 71 70 71 71 72 72 74 76 76 75 74 72 73 73 72 72 72 71 72 72 71 71
73 73 73 74 74 74 73 72 72 73 73 74 75 73 72 72 72 72 71 71 70 71 71 71 72 73 72 73 74 75 74 73 73 72 72 72 72 71 71 71 72 72
73 73 74 74 75 73 73 73 74 75 75 75 75 75 75 75 75 73 73 72 71 71 71 71 73 72 73 75 76 74 73 73 73 73 73 73 73 73 73 73 73 73
73 72 73 74 75 73 73 74 75 73 74 75 75 75 75 76 75 74 73 73 73 71 72 71 70 70 74 71 71 73 73 73 74 74 74 74 73 73 72 72 72 72
73 73 74 74 74 74 74 75 75 75 75 74 75 74 76 75 75 74 74 74 73 72 72 71 72 74 69 70 72 71 74 72 71 71 73 75 74 72 72 72 72 72
74 74 74 74 74 74 74 75 75 74 74 74 74 74 74 74 74 73 72 71 71 71 71 73 72 73 67 68 68 68 70 71 71 72 74 74 74 74 72 71 72 70
74 74 73 74 74 74 74 74 74 74 74 75 75 75 74 74 74 73 73 73 72 73 73 71 72 72 67 68 67 67 69 72 70 72 73 73 74 74 73 73 71 70
74 73 73 73 74 74 74 74 74 73 74 75 74 74 73 74 73 73 73 73 72 73 73 72 71 70 67 67 66 66 68 71 72 71 71 73 73 73 73 72 72 72
73 73 73 73 73 73 73 73 73 74 74 74 74 74 74 74 74 74 73 73 73 72 73 72 74 67 68 67 67 66 69 72 72 73 72 73 72 73 73 73 73 73
73 73 73 73 73 73 73 73 73 73 74 75 73 73 73 74 73 75 74 73 73 72 71 72 73 69 64 65 65 65 68 73 73 72 72 72 72 73 74 73 73 72
72 73 72 72 73 72 72 73 74 74 73 74 73 72 73 73 75 74 74 73 73 73 72 72 72 71 65 63 62 62 71 72 73 73 72 73 72 72 73 73 72 73
73 73 73 73 72 72 72 73 73 74 74 75 74 74 74 75 73 72 73 73 72 72 72 72 73 70 61 61 61 62 68 72 73 72 71 71 72 70 72 72 72 72
74 73 73 73 73 72 73 74 75 74 74 74 74 74 73 73 74 71 70 72 72 72 72 72 73 72 66 59 60 61 64 71 71 71 71 71 70 71 71 71 72 71